Argyle, GA

9:49 AM EST on February 06, 2016 (GMT -0500)
Homerville

Weather History for KHOE - January, 2013

Change the Weather History Date:

Wednesday, January 30, 2013

  Actual Average Record
Temperature  
Mean Temperature 66 °F -  
Max Temperature 80 °F 66 °F 81 °F (1975)
Min Temperature 53 °F 39 °F 12 °F (1966)
Cooling Degree Days 2    
Growing Degree Days 16 (Base 50)    
Moisture  
Dew Point 63 °F    
Average Humidity 80    
Maximum Humidity 100    
Minimum Humidity 54    
Precipitation  
Precipitation 0.00 in - - ()
Sea Level Pressure  
Sea Level Pressure 29.91 in    
Wind  
Wind Speed 10 mph (SSW)    
Max Wind Speed 33 mph    
Max Gust Speed 48 mph    
Visibility 10 miles    
Events Rain    
Averages and records for this station are not official NWS values.
T = Trace of Precipitation, MM = Missing Value Source: NWS Daily Summary

Daily Weather History Graph

Daily Weather History Graph

Search for Another Location

Airport or City:

Trip Planner

Search our weather history database for the weather conditions in past years. The results will help you decide how hot, cold, wet, or windy it might be!

Date:

Astronomy

Jan. 30, 2013 Rise Set
Actual Time 7:24 AM EST 6:05 PM EST
Civil Twilight 6:58 AM EST 6:30 PM EST
Nautical Twilight 6:29 AM EST 6:59 PM EST
Astronomical Twilight 6:01 AM EST 7:28 PM EST
Moon 9:42 PM EST (1/30) 9:09 AM EST (1/30)
Length of Visible Light 11h 31m
Length of Day
10h 40m
Waning Gibbous, 88% of the Moon is Illuminated
Jan 30
Waning Gibbous
Feb 3
Last Quarter
Feb 10
New
Feb 17
First Quarter
Feb 25
Full

Hourly Weather History & Observations

Time (EST) Temp. Heat Index Dew Point Humidity Pressure Visibility Wind Dir Wind Speed Gust Speed Precip Events Conditions
12:15 AM 66.2 °F - 64.4 °F 94% 30.09 in 10.0 mi SSE 5.8 mph - N/A   Mostly Cloudy
12:35 AM 68.0 °F - 64.4 °F 88% 30.08 in 10.0 mi SSE 6.9 mph - N/A   Overcast
12:55 AM 68.0 °F - 64.4 °F 88% 30.08 in 10.0 mi SSE 6.9 mph - N/A   Overcast
1:15 AM 68.0 °F - 66.2 °F 94% 30.07 in 10.0 mi SSE 6.9 mph - N/A Rain Light Rain
1:35 AM 68.0 °F - 64.4 °F 88% 30.07 in 10.0 mi SSE 6.9 mph - N/A   Mostly Cloudy
1:55 AM 66.2 °F - 64.4 °F 94% 30.06 in 10.0 mi South 5.8 mph - N/A   Mostly Cloudy
2:15 AM 66.2 °F - 64.4 °F 94% 30.05 in 10.0 mi SSE 5.8 mph - N/A   Mostly Cloudy
2:35 AM 66.2 °F - 64.4 °F 94% 30.04 in 10.0 mi South 6.9 mph - N/A   Mostly Cloudy
2:55 AM 68.0 °F - 64.4 °F 88% 30.04 in 10.0 mi SSE 6.9 mph - N/A   Overcast
3:15 AM 68.0 °F - 64.4 °F 88% 30.03 in 10.0 mi SSE 6.9 mph - N/A   Overcast
3:35 AM 68.0 °F - 64.4 °F 88% 30.02 in 10.0 mi SSE 6.9 mph - N/A   Overcast
3:55 AM 68.0 °F - 64.4 °F 88% 30.02 in 10.0 mi SSE 5.8 mph - N/A   Overcast
4:15 AM 66.2 °F - 64.4 °F 94% 30.02 in 10.0 mi SSE 6.9 mph - N/A   Mostly Cloudy
4:35 AM 68.0 °F - 64.4 °F 88% 30.02 in 10.0 mi South 4.6 mph - N/A   Mostly Cloudy
4:55 AM 68.0 °F - 64.4 °F 88% 30.02 in 10.0 mi SSE 4.6 mph - N/A   Overcast
5:15 AM 68.0 °F - 64.4 °F 88% 29.99 in 10.0 mi South 10.4 mph - N/A   Overcast
5:35 AM 68.0 °F - 66.2 °F 94% 29.99 in 10.0 mi South 6.9 mph - N/A   Overcast
5:55 AM 68.0 °F - 66.2 °F 94% 29.98 in 10.0 mi South 9.2 mph - N/A   Overcast
6:15 AM 68.0 °F - 66.2 °F 94% 29.98 in 10.0 mi South 8.1 mph - N/A   Mostly Cloudy
6:55 AM 68.0 °F - 66.2 °F 94% 29.99 in 10.0 mi South 8.1 mph - N/A   Mostly Cloudy
7:15 AM 68.0 °F - 66.2 °F 94% 30.00 in 10.0 mi South 6.9 mph - N/A   Overcast
7:35 AM 68.0 °F - 66.2 °F 94% 29.99 in 10.0 mi South 9.2 mph - N/A   Mostly Cloudy
7:55 AM 68.0 °F - 66.2 °F 94% 29.99 in 10.0 mi South 8.1 mph - N/A   Scattered Clouds
8:15 AM 68.0 °F - 66.2 °F 94% 29.98 in 10.0 mi South 9.2 mph - N/A   Scattered Clouds
8:35 AM 68.0 °F - 64.4 °F 88% 29.98 in 10.0 mi South 10.4 mph 16.1 mph N/A   Clear
8:55 AM 69.8 °F - 64.4 °F 83% 29.95 in 10.0 mi South 12.7 mph 21.9 mph N/A   Clear
9:15 AM 69.8 °F - 64.4 °F 83% 29.96 in 10.0 mi South 10.4 mph - N/A   Clear
9:35 AM 71.6 °F - 64.4 °F 78% 29.98 in 10.0 mi SSW 13.8 mph 17.3 mph N/A   Clear
9:55 AM 73.4 °F - 64.4 °F 73% 29.98 in 10.0 mi SSW 10.4 mph 21.9 mph N/A   Scattered Clouds
10:15 AM 71.6 °F - 62.6 °F 73% 29.97 in 10.0 mi South 15.0 mph 20.7 mph N/A   Mostly Cloudy
10:35 AM 73.4 °F - 62.6 °F 69% 29.97 in 10.0 mi South 13.8 mph 20.7 mph N/A   Mostly Cloudy
10:55 AM 75.2 °F - 62.6 °F 65% 29.95 in 10.0 mi South 10.4 mph 23.0 mph N/A   Scattered Clouds
11:15 AM 75.2 °F - 60.8 °F 61% 29.95 in 10.0 mi SSW 18.4 mph 25.3 mph N/A   Scattered Clouds
11:35 AM 77.0 °F - 62.6 °F 61% 29.93 in 10.0 mi SSW 10.4 mph 23.0 mph N/A   Scattered Clouds
11:55 AM 78.8 °F - 60.8 °F 54% 29.92 in 10.0 mi SSW 18.4 mph 26.5 mph N/A   Clear
12:15 PM 78.8 °F - 62.6 °F 57% 29.90 in 10.0 mi South 13.8 mph 24.2 mph N/A   Scattered Clouds
12:55 PM 78.8 °F - 62.6 °F 57% 29.88 in 10.0 mi SSW 19.6 mph 24.2 mph N/A   Scattered Clouds
1:15 PM 80.6 °F 81.8 °F 62.6 °F 54% 29.87 in 10.0 mi SSW 16.1 mph 26.5 mph N/A   Mostly Cloudy
1:35 PM 78.8 °F - 62.6 °F 57% 29.86 in 10.0 mi South 15.0 mph 28.8 mph N/A   Overcast
1:55 PM 78.8 °F - 62.6 °F 57% 29.85 in 10.0 mi SSW 17.3 mph 26.5 mph N/A   Overcast
2:15 PM 78.8 °F - 62.6 °F 57% 29.83 in 10.0 mi South 15.0 mph 25.3 mph N/A   Overcast
2:35 PM 77.0 °F - 62.6 °F 61% 29.83 in 10.0 mi South 16.1 mph 24.2 mph N/A   Overcast
2:55 PM 77.0 °F - 64.4 °F 65% 29.82 in 10.0 mi South 11.5 mph 23.0 mph N/A   Overcast
3:15 PM 77.0 °F - 64.4 °F 65% 29.81 in 10.0 mi SSW 16.1 mph 25.3 mph N/A   Overcast
3:35 PM 78.8 °F - 64.4 °F 61% 29.80 in 10.0 mi SSW 15.0 mph 32.2 mph N/A   Overcast
3:55 PM 77.0 °F - 64.4 °F 65% 29.80 in 10.0 mi South 16.1 mph 26.5 mph N/A   Overcast
4:15 PM 77.0 °F - 64.4 °F 65% 29.80 in 10.0 mi SSW 11.5 mph 21.9 mph N/A   Overcast
4:35 PM 77.0 °F - 64.4 °F 65% 29.79 in 10.0 mi SSW 20.7 mph 28.8 mph N/A   Overcast
4:55 PM 77.0 °F - 64.4 °F 65% 29.78 in 10.0 mi SSW 18.4 mph 28.8 mph N/A   Overcast
5:15 PM 77.0 °F - 64.4 °F 65% 29.77 in 10.0 mi South 17.3 mph 27.6 mph N/A   Overcast
5:35 PM 75.2 °F - 64.4 °F 69% 29.77 in 10.0 mi SSW 16.1 mph 31.1 mph N/A   Overcast
5:55 PM 75.2 °F - 64.4 °F 69% 29.76 in 10.0 mi South 15.0 mph 28.8 mph N/A   Overcast
6:15 PM 73.4 °F - 64.4 °F 73% 29.76 in 10.0 mi SSW 15.0 mph 29.9 mph N/A   Overcast
6:35 PM 73.4 °F - 64.4 °F 73% 29.74 in 10.0 mi SSW 12.7 mph 29.9 mph N/A   Overcast
6:55 PM 73.4 °F - 64.4 °F 73% 29.74 in 10.0 mi SSW 17.3 mph 26.5 mph N/A   Overcast
7:15 PM 73.4 °F - 66.2 °F 78% 29.74 in 10.0 mi SSW 12.7 mph 26.5 mph N/A   Overcast
7:35 PM 73.4 °F - 66.2 °F 78% 29.75 in 10.0 mi SSW 13.8 mph 25.3 mph N/A   Overcast
7:55 PM 73.4 °F - 66.2 °F 78% 29.77 in 10.0 mi SSW 15.0 mph 26.5 mph N/A   Overcast
8:15 PM 73.4 °F - 66.2 °F 78% 29.76 in 10.0 mi SSW 12.7 mph 24.2 mph N/A   Overcast
8:35 PM 69.8 °F - 62.6 °F 78% 29.83 in 5.0 mi WNW 33.4 mph 48.3 mph N/A Rain Heavy Rain
8:55 PM 57.2 °F - 55.4 °F 94% 29.83 in 3.0 mi WNW 19.6 mph 32.2 mph N/A Rain Rain
9:15 PM 55.4 °F - 55.4 °F 100% 29.84 in 3.0 mi WNW 16.1 mph 29.9 mph N/A Rain Heavy Rain
9:35 PM 55.4 °F - 55.4 °F 100% 29.84 in 7.0 mi WNW 12.7 mph 16.1 mph N/A Rain Rain
9:55 PM 53.6 °F - 53.6 °F 100% 29.85 in 7.0 mi West 6.9 mph - N/A Rain Light Rain
10:15 PM 53.6 °F - 53.6 °F 100% 29.87 in 10.0 mi West 10.4 mph - N/A   Overcast
10:35 PM 53.6 °F - 51.8 °F 94% 29.87 in 10.0 mi WSW 8.1 mph - N/A   Overcast
10:55 PM 53.6 °F - 51.8 °F 94% 29.88 in 10.0 mi West 9.2 mph - N/A   Overcast
11:15 PM 53.6 °F - 51.8 °F 94% 29.88 in 10.0 mi West 8.1 mph - N/A   Overcast
11:35 PM 53.6 °F - 51.8 °F 94% 29.88 in 10.0 mi West 8.1 mph - N/A   Overcast
11:55 PM 53.6 °F - 51.8 °F 94% 29.89 in 10.0 mi West 9.2 mph - N/A   Overcast